Вернуться в каталог

STARLINK-3933

АктивенСвязьVLEO
NORAD 52538·PAYLOAD·🇺🇸 United States

Запущен May 13, 2022 с Vandenberg Space Force Base

Loading…

Ближайшие Пролёты (ближайшие 24 часа)

TLE

СвежийSource: CelesTrak SupGP

Эпоха: Sep 15, 2026, 02:49 UTC

1 52538C 22051F   26258.11784722  .00032778  00000+0  96852-3 0  2585
2 52538  53.1591 342.6350 0001217  92.7041 159.6084 15.34370950    17

Отслеживайте STARLINK-3933 в реальном времени с AllMySat

Download on the App Store